Погода в Бегомле

Беларусь     54°43′55″N   28°03′34″E
темп.,
°C
ветер,
м/с
пор.,
м/с
влажн.,
%
обл.,
%
осадки,
мм/ч
давл.,
гПа
погр.,
м
29 января, сб
сб2900:00−1сз61295100 0.8 1005962
03:00−2сз61393100 1.2 1008956
06:00−3сз6139081 0.4 1010877
09:00−4сз5108995 0.4 1012730
12:00−4сз479099 0.1 1013543
15:00−3зсз3682100 0.1 1012639
18:00−5ююз3894100 0.0 1009230
21:00−4ююз51484100 0.0 1005507
30 января, вс
вс3000:00−2ю71795100 1.0 996926
03:00−1ююз81695100 5.5 9891004
06:00+1юз71797100 2.1 9841155
09:000юз6148682 2.8 983947
12:00+1юз61387100 0.1 9831112
15:000юз5108671 0.1 981885
18:00−2ю4109291 0.1 981433
21:00−2ююв3797100 1.1 981399
31 января, пн
пн3100:00−3с119990 0.2 98326
03:00−3с369787 0.3 986247
06:00−3сз269593 0.1 988328
09:00−3зсз4996100 0.6 990490
12:00−3зсз5994100 0.6 991621
15:00−3зсз5993100 1.1 992739
18:00−4зсз41095100 0.3 994704
21:00−4зсз4109599 0.8 995729
1 февраля, вт
вт100:00−5зсз51094100 0.4 997621
03:00−6з51093100 0.6 998533
06:00−7з4109498 0.3 999563
09:00−7з4109499 0.5 1000535
12:00−6з4791100 0.1 1001495
15:00−5з4789100 0.2 1001821
18:00−5зюз3992100 0.1 1001463
21:00−5юз3996100 0.1 1001374
2 февраля, ср
ср200:00−5юз3995100 0.0 1000345
03:00−5ююз379699 0.3 999305
06:00−5юз279687 0.2 998258
09:00−7ююз279769 0.2 999170
12:00−5ю359062 0.0 999248
15:00−3ююв358567 0.0 998448
18:00−8вюв259754 0.0 100080
21:00−5вюв3896100 0.2 1001317